MIDORI II (ADEOS-II)

Last updated on Tue Jul 08 2025 00:02:14 GMT+0000 (Coordinated Universal Time)

1 27597U 02056A 25188.48698714 .00000199 00000+0 96166-4 0 9994 2 27597 98.7387 140.8606 0001574 44.0684 316.0623 14.29063381175272
UTC large
Height (km)
Speed (km/s)
/
Latitude / Longitude
Inclination (degrees)
Orbital Period (minutes)
Azimuth
Elevation
Range (km)
Doppler Factor

Next 0 passes for location: London (51.5072 / 0.1276)

Sorry there are no passes over London.